Weather History for KVES - February, 2013

Change the Weather History Date:

Sunday, February 17, 2013

  Actual Average (KDAY) Record (KDAY)
Temperature  
Mean Temperature 20 °F 31 °F  
Max Temperature 28 °F 39 °F 70 °F (1911)
Min Temperature 12 °F 23 °F -11 °F (1979)
Degree Days  
Heating Degree Days 45 34  
Month to date heating degree days 601  
Since 1 July heating degree days 3924  
Cooling Degree Days 0 0  
Month to date cooling degree days 0  
Year to date cooling degree days 0  
Moisture  
Dew Point 12 °F    
Average Humidity 73    
Maximum Humidity 93    
Minimum Humidity 47    
Precipitation  
Precipitation 0.00 in 0.08 in 0.95 in (1910)
Month to date precipitation 1.36  
Year to date precipitation 4.07  
Snow  
Snow 0.00 in 0.20 in 10.50 in (1910)
Month to date snowfall 3.7  
Since 1 July snowfall 17.1  
Snow Depth -    
Sea Level Pressure  
Sea Level Pressure 30.15 in    
Wind  
Wind Speed 6 mph (WNW)    
Max Wind Speed 9 mph    
Max Gust Speed -    
Visibility 10 miles    
Events Snow    
T = Trace of Precipitation, MM = Missing Value Source: NWS Daily Summary

Daily Weather History Graph

Daily Weather History Graph

Search for Another Location

Airport or City:

Trip Planner

Search our weather history database for the weather conditions in past years. The results will help you decide how hot, cold, wet, or windy it might be!

Date:

Astronomy

Feb. 17, 2013 Rise Set
Actual Time 7:28 AM EST 6:16 PM EST
Civil Twilight 7:00 AM EST 6:44 PM EST
Nautical Twilight 6:28 AM EST 7:15 PM EST
Astronomical Twilight 5:57 AM EST 7:47 PM EST
Moon 11:20 AM EST (2/17) 1:11 AM EST (2/17)
Length of Visible Light 11h 43m
Length of Day
10h 48m
Waxing Crescent, 49% of the Moon is Illuminated
Feb 17
Waxing Crescent
Feb 17
First Quarter
Feb 25
Full
Mar 4
Last Quarter
Mar 11
New

Hourly Weather History & Observations

Time (EST) Temp. Windchill Dew Point Humidity Pressure Visibility Wind Dir Wind Speed Gust Speed Precip Events Conditions
12:15 AM 15.8 °F 7.2 °F 10.4 °F 79% 30.08 in 10.0 mi WNW 5.8 mph - N/A   Clear
12:35 AM 15.8 °F 6.1 °F 10.4 °F 79% 30.08 in 10.0 mi WNW 6.9 mph - N/A   Clear
12:55 AM 15.8 °F 5.1 °F 10.4 °F 79% 30.08 in 10.0 mi WNW 8.1 mph - N/A   Clear
1:15 AM 15.8 °F 5.1 °F 10.4 °F 79% 30.08 in 10.0 mi WNW 8.1 mph - N/A   Clear
1:35 AM 15.8 °F 5.1 °F 10.4 °F 79% 30.08 in 10.0 mi WNW 8.1 mph - N/A   Clear
1:55 AM 14.0 °F 5.1 °F 10.4 °F 86% 30.08 in 10.0 mi WNW 5.8 mph - N/A   Clear
2:15 AM 14.0 °F 3.9 °F 10.4 °F 86% 30.09 in 10.0 mi WNW 6.9 mph - N/A   Clear
2:35 AM 14.0 °F 5.1 °F 10.4 °F 86% 30.08 in 10.0 mi WNW 5.8 mph - N/A   Clear
2:55 AM 14.0 °F 3.9 °F 10.4 °F 86% 30.08 in 10.0 mi WNW 6.9 mph - N/A   Clear
3:15 AM 14.0 °F 5.1 °F 10.4 °F 86% 30.08 in 10.0 mi WNW 5.8 mph - N/A   Clear
3:35 AM 14.0 °F 5.1 °F 10.4 °F 86% 30.08 in 10.0 mi WNW 5.8 mph - N/A   Clear
3:55 AM 14.0 °F 3.9 °F 10.4 °F 86% 30.08 in 10.0 mi WNW 6.9 mph - N/A   Clear
4:15 AM 14.0 °F 5.1 °F 10.4 °F 86% 30.08 in 10.0 mi WNW 5.8 mph - N/A   Clear
4:35 AM 14.0 °F 6.5 °F 10.4 °F 86% 30.08 in 10.0 mi WNW 4.6 mph - N/A   Clear
4:55 AM 14.0 °F 3.9 °F 10.4 °F 86% 30.09 in 10.0 mi WNW 6.9 mph - N/A   Clear
5:15 AM 14.0 °F 5.1 °F 10.4 °F 86% 30.10 in 10.0 mi WNW 5.8 mph - N/A   Clear
5:35 AM 14.0 °F 6.5 °F 10.4 °F 86% 30.11 in 10.0 mi West 4.6 mph - N/A   Clear
5:55 AM 12.2 °F - 10.4 °F 92% 30.11 in 10.0 mi Calm Calm - N/A   Clear
6:15 AM 12.2 °F 2.9 °F 10.4 °F 92% 30.11 in 10.0 mi WNW 5.8 mph - N/A   Clear
6:35 AM 14.0 °F 5.1 °F 10.4 °F 86% 30.12 in 10.0 mi WNW 5.8 mph - N/A   Mostly Cloudy
6:55 AM 14.0 °F 6.5 °F 10.4 °F 86% 30.13 in 10.0 mi WNW 4.6 mph - N/A Snow Light Snow
7:15 AM 14.0 °F 2.9 °F 12.2 °F 93% 30.14 in 10.0 mi WNW 8.1 mph - N/A   Overcast
7:35 AM 14.0 °F 2.0 °F 12.2 °F 93% 30.14 in 10.0 mi NNW 9.2 mph - N/A Snow Light Snow
7:55 AM 15.8 °F 5.1 °F 12.2 °F 86% 30.15 in 10.0 mi NW 8.1 mph - N/A Snow Light Snow
8:15 AM 15.8 °F 5.1 °F 12.2 °F 86% 30.16 in 10.0 mi NW 8.1 mph - N/A Snow Light Snow
8:35 AM 15.8 °F 5.1 °F 12.2 °F 86% 30.16 in 10.0 mi NNW 8.1 mph - N/A Snow Light Snow
8:55 AM 15.8 °F 4.2 °F 12.2 °F 86% 30.17 in 7.0 mi WNW 9.2 mph - N/A Snow Light Snow
9:15 AM 17.6 °F 8.2 °F 12.2 °F 79% 30.17 in 7.0 mi WNW 6.9 mph - N/A Snow Light Snow
9:35 AM 17.6 °F 10.7 °F 12.2 °F 79% 30.18 in 10.0 mi WNW 4.6 mph - N/A   Mostly Cloudy
9:55 AM 17.6 °F 9.3 °F 12.2 °F 79% 30.18 in 10.0 mi NW 5.8 mph - N/A   Mostly Cloudy
10:15 AM 19.4 °F 10.4 °F 14.0 °F 80% 30.19 in 10.0 mi NNW 6.9 mph - N/A   Mostly Cloudy
10:35 AM 19.4 °F 11.5 °F 14.0 °F 80% 30.19 in 10.0 mi WNW 5.8 mph - N/A   Mostly Cloudy
10:55 AM 21.2 °F 13.6 °F 14.0 °F 74% 30.19 in 10.0 mi WNW 5.8 mph - N/A   Mostly Cloudy
11:15 AM 21.2 °F - 14.0 °F 74% 30.20 in 10.0 mi Calm Calm - N/A   Mostly Cloudy
11:35 AM 21.2 °F 14.9 °F 12.2 °F 68% 30.20 in 10.0 mi WNW 4.6 mph - N/A   Scattered Clouds
11:55 AM 23.0 °F 14.7 °F 12.2 °F 63% 30.20 in 10.0 mi WNW 6.9 mph - N/A   Scattered Clouds
12:15 PM 23.0 °F 14.7 °F 12.2 °F 63% 30.20 in 10.0 mi North 6.9 mph - N/A   Scattered Clouds
12:35 PM 23.0 °F 18.4 °F 12.2 °F 63% 30.19 in 10.0 mi North 3.5 mph - N/A   Scattered Clouds
12:55 PM 24.8 °F 19.1 °F 10.4 °F 54% 30.19 in 10.0 mi North 4.6 mph - N/A   Mostly Cloudy
1:15 PM 24.8 °F 16.1 °F 10.4 °F 54% 30.18 in 10.0 mi WNW 8.1 mph - N/A   Overcast
1:55 PM 26.6 °F 20.0 °F 10.4 °F 51% 30.18 in 10.0 mi NNW 5.8 mph - N/A   Mostly Cloudy
2:15 PM 26.6 °F 21.2 °F 12.2 °F 55% 30.18 in 10.0 mi North 4.6 mph - N/A   Overcast
2:35 PM 28.4 °F 19.7 °F 12.2 °F 51% 30.18 in 10.0 mi West 9.2 mph - N/A   Overcast
2:55 PM 26.6 °F 21.2 °F 10.4 °F 51% 30.18 in 10.0 mi West 4.6 mph - N/A   Scattered Clouds
3:15 PM 26.6 °F 22.6 °F 10.4 °F 51% 30.18 in 10.0 mi WNW 3.5 mph - N/A   Mostly Cloudy
3:35 PM 26.6 °F - 10.4 °F 51% 30.17 in 10.0 mi Calm Calm - N/A   Mostly Cloudy
3:55 PM 28.4 °F 21.2 °F 10.4 °F 47% 30.17 in 10.0 mi West 6.9 mph - N/A   Mostly Cloudy
4:15 PM 28.4 °F 21.2 °F 12.2 °F 51% 30.17 in 10.0 mi WNW 6.9 mph - N/A   Scattered Clouds
4:35 PM 28.4 °F 22.2 °F 12.2 °F 51% 30.17 in 10.0 mi WNW 5.8 mph - N/A   Clear
4:55 PM 28.4 °F 22.2 °F 10.4 °F 47% 30.17 in 10.0 mi West 5.8 mph - N/A   Clear
5:15 PM 28.4 °F 24.6 °F 12.2 °F 51% 30.17 in 10.0 mi West 3.5 mph - N/A   Clear
5:35 PM 28.4 °F 23.3 °F 12.2 °F 51% 30.17 in 10.0 mi WSW 4.6 mph - N/A   Clear
5:55 PM 26.6 °F 22.6 °F 12.2 °F 55% 30.17 in 10.0 mi WSW 3.5 mph - N/A   Clear
6:15 PM 26.6 °F 20.0 °F 14.0 °F 59% 30.17 in 10.0 mi WSW 5.8 mph - N/A   Clear
6:35 PM 26.6 °F 22.6 °F 14.0 °F 59% 30.17 in 10.0 mi SW 3.5 mph - N/A   Clear
6:55 PM 24.8 °F 20.5 °F 14.0 °F 64% 30.18 in 10.0 mi SW 3.5 mph - N/A   Clear
7:15 PM 24.8 °F 20.5 °F 14.0 °F 64% 30.18 in 10.0 mi SSW 3.5 mph - N/A   Clear
7:55 PM 23.0 °F - 12.2 °F 63% 30.17 in 10.0 mi Calm Calm - N/A   Clear
8:15 PM 23.0 °F - 15.8 °F 74% 30.17 in 10.0 mi Calm Calm - N/A   Clear
8:35 PM 23.0 °F 18.4 °F 15.8 °F 74% 30.17 in 10.0 mi South 3.5 mph - N/A   Clear
8:55 PM 23.0 °F 17.0 °F 15.8 °F 74% 30.17 in 10.0 mi SE 4.6 mph - N/A   Clear
9:15 PM 21.2 °F 13.6 °F 15.8 °F 80% 30.17 in 10.0 mi SE 5.8 mph - N/A   Clear
9:35 PM 21.2 °F 14.9 °F 15.8 °F 80% 30.17 in 10.0 mi SE 4.6 mph - N/A   Clear
10:15 PM 21.2 °F 14.9 °F 15.8 °F 80% 30.17 in 10.0 mi SE 4.6 mph - N/A   Clear
10:35 PM 21.2 °F 13.6 °F 14.0 °F 74% 30.17 in 10.0 mi SSE 5.8 mph - N/A   Clear
10:55 PM 21.2 °F 13.6 °F 14.0 °F 74% 30.18 in 10.0 mi SSE 5.8 mph - N/A   Clear
11:15 PM 21.2 °F 12.6 °F 14.0 °F 74% 30.19 in 10.0 mi SSE 6.9 mph - N/A   Clear
11:35 PM 21.2 °F 12.6 °F 14.0 °F 74% 30.17 in 10.0 mi SSE 6.9 mph - N/A   Clear
11:55 PM 21.2 °F 11.7 °F 14.0 °F 74% 30.16 in 10.0 mi SE 8.1 mph - N/A   Clear